Year,Month,Day,Hour,Minute,Value (Times are PST for temperature in C)
2018,04,12,00,00,5.20
2018,04,12,00,01,5.20
2018,04,12,00,02,5.20
2018,04,12,00,03,5.10
2018,04,12,00,04,5.10
2018,04,12,00,05,5.10
2018,04,12,00,06,5.10
2018,04,12,00,07,5.00
2018,04,12,00,08,5.00
2018,04,12,00,09,5.00
2018,04,12,00,10,4.90
2018,04,12,00,11,4.90
2018,04,12,00,12,4.90
2018,04,12,00,13,4.90
2018,04,12,00,14,4.90
2018,04,12,00,15,4.90
2018,04,12,00,16,4.80
2018,04,12,00,17,4.80
2018,04,12,00,18,4.80
2018,04,12,00,19,4.80
2018,04,12,00,20,4.80
2018,04,12,00,21,4.80
2018,04,12,00,22,4.80
2018,04,12,00,23,4.70
2018,04,12,00,24,4.70
2018,04,12,00,25,4.70
2018,04,12,00,26,4.70
2018,04,12,00,27,4.70
2018,04,12,00,28,4.70
2018,04,12,00,29,4.70
2018,04,12,00,30,4.70
2018,04,12,00,31,4.60
2018,04,12,00,32,4.60
2018,04,12,00,33,4.60
2018,04,12,00,34,4.60
2018,04,12,00,35,4.60
2018,04,12,00,36,4.60
2018,04,12,00,37,4.60
2018,04,12,00,38,4.50
2018,04,12,00,39,4.50
2018,04,12,00,40,4.50
2018,04,12,00,41,4.50
2018,04,12,00,42,4.50
2018,04,12,00,43,4.40
2018,04,12,00,44,4.40
2018,04,12,00,45,4.40
2018,04,12,00,46,4.40
2018,04,12,00,47,4.40
2018,04,12,00,48,4.40
2018,04,12,00,49,4.40
2018,04,12,00,50,4.40
2018,04,12,00,51,4.40
2018,04,12,00,52,4.40
2018,04,12,00,53,4.30
2018,04,12,00,54,4.30
2018,04,12,00,55,4.30
2018,04,12,00,56,4.30
2018,04,12,00,57,4.30
2018,04,12,00,58,4.30
2018,04,12,00,59,4.30
2018,04,12,01,00,4.30
2018,04,12,01,01,4.20
2018,04,12,01,02,4.20
2018,04,12,01,03,4.20
2018,04,12,01,04,4.20
2018,04,12,01,05,4.20
2018,04,12,01,06,4.20
2018,04,12,01,07,4.10
2018,04,12,01,08,4.10
2018,04,12,01,09,4.10
2018,04,12,01,10,4.10
2018,04,12,01,11,4.10
2018,04,12,01,12,4.10
2018,04,12,01,13,4.10
2018,04,12,01,14,4.00
2018,04,12,01,15,4.00
2018,04,12,01,16,4.00
2018,04,12,01,17,4.00
2018,04,12,01,18,4.00
2018,04,12,01,19,4.00
2018,04,12,01,20,3.90
2018,04,12,01,21,3.90
2018,04,12,01,22,3.90
2018,04,12,01,23,3.90
2018,04,12,01,24,3.90
2018,04,12,01,25,3.80
2018,04,12,01,26,3.80
2018,04,12,01,27,3.80
2018,04,12,01,28,3.80
2018,04,12,01,29,3.80
2018,04,12,01,30,3.80
2018,04,12,01,31,3.80
2018,04,12,01,32,3.80
2018,04,12,01,33,3.80
2018,04,12,01,34,3.80
2018,04,12,01,35,3.80
2018,04,12,01,36,3.70
2018,04,12,01,37,3.70
2018,04,12,01,38,3.70
2018,04,12,01,39,3.70
2018,04,12,01,40,3.70
2018,04,12,01,41,3.70
2018,04,12,01,42,3.70
2018,04,12,01,43,3.70
2018,04,12,01,44,3.70
2018,04,12,01,45,3.60
2018,04,12,01,46,3.60
2018,04,12,01,47,3.60
2018,04,12,01,48,3.60
2018,04,12,01,49,3.60
2018,04,12,01,50,3.50
2018,04,12,01,51,3.50
2018,04,12,01,52,3.50
2018,04,12,01,53,3.50
2018,04,12,01,54,3.40
2018,04,12,01,55,3.40
2018,04,12,01,56,3.40
2018,04,12,01,57,3.40
2018,04,12,01,58,3.40
2018,04,12,01,59,3.40
2018,04,12,02,00,3.30
2018,04,12,02,01,3.30
2018,04,12,02,02,3.30
2018,04,12,02,03,3.30
2018,04,12,02,04,3.30
2018,04,12,02,05,3.20
2018,04,12,02,06,3.20
2018,04,12,02,07,3.20
2018,04,12,02,08,3.20
2018,04,12,02,09,3.20
2018,04,12,02,10,3.20
2018,04,12,02,11,3.20
2018,04,12,02,12,3.10
2018,04,12,02,13,3.10
2018,04,12,02,14,3.10
2018,04,12,02,15,3.10
2018,04,12,02,16,3.10
2018,04,12,02,17,3.10
2018,04,12,02,18,3.10
2018,04,12,02,19,3.10
2018,04,12,02,20,3.10
2018,04,12,02,21,3.00
2018,04,12,02,22,3.00
2018,04,12,02,23,3.00
2018,04,12,02,24,3.00
2018,04,12,02,25,3.00
2018,04,12,02,26,3.00
2018,04,12,02,27,3.00
2018,04,12,02,28,3.00
2018,04,12,02,29,3.00
2018,04,12,02,30,3.00
2018,04,12,02,31,2.90
2018,04,12,02,32,2.90
2018,04,12,02,33,2.90
2018,04,12,02,34,2.90
2018,04,12,02,35,2.90
2018,04,12,02,36,2.90
2018,04,12,02,37,2.90
2018,04,12,02,38,2.90
2018,04,12,02,39,2.80
2018,04,12,02,40,2.80
2018,04,12,02,41,2.80
2018,04,12,02,42,2.80
2018,04,12,02,43,2.80
2018,04,12,02,44,2.80
2018,04,12,02,45,2.70
2018,04,12,02,46,2.70
2018,04,12,02,47,2.70
2018,04,12,02,48,2.70
2018,04,12,02,49,2.70
2018,04,12,02,50,2.70
2018,04,12,02,51,2.70
2018,04,12,02,52,2.60
2018,04,12,02,53,2.60
2018,04,12,02,54,2.60
2018,04,12,02,55,2.60
2018,04,12,02,56,2.60
2018,04,12,02,57,2.60
2018,04,12,02,58,2.50
2018,04,12,02,59,2.50
2018,04,12,03,00,2.50
2018,04,12,03,01,2.50
2018,04,12,03,02,2.50
2018,04,12,03,03,2.50
2018,04,12,03,04,2.40
2018,04,12,03,05,2.40
2018,04,12,03,06,2.40
2018,04,12,03,07,2.40
2018,04,12,03,08,2.40
2018,04,12,03,09,2.40
2018,04,12,03,10,2.40
2018,04,12,03,11,2.40
2018,04,12,03,12,2.30
2018,04,12,03,13,2.30
2018,04,12,03,14,2.30
2018,04,12,03,15,2.30
2018,04,12,03,16,2.30
2018,04,12,03,17,2.30
2018,04,12,03,18,2.30
2018,04,12,03,19,2.30
2018,04,12,03,20,2.30
2018,04,12,03,21,2.30
2018,04,12,03,22,2.30
2018,04,12,03,23,2.30
2018,04,12,03,24,2.30
2018,04,12,03,25,2.30
2018,04,12,03,26,2.30
2018,04,12,03,27,2.30
2018,04,12,03,28,2.20
2018,04,12,03,29,2.30
2018,04,12,03,30,2.20
2018,04,12,03,31,2.20
2018,04,12,03,32,2.20
2018,04,12,03,33,2.20
2018,04,12,03,34,2.20
2018,04,12,03,35,2.20
2018,04,12,03,36,2.20
2018,04,12,03,37,2.20
2018,04,12,03,38,2.20
2018,04,12,03,39,2.20
2018,04,12,03,40,2.20
2018,04,12,03,41,2.20
2018,04,12,03,42,2.20
2018,04,12,03,43,2.20
2018,04,12,03,44,2.20
2018,04,12,03,45,2.20
2018,04,12,03,46,2.20
2018,04,12,03,47,2.20
2018,04,12,03,48,2.20
2018,04,12,03,49,2.20
2018,04,12,03,50,2.10
2018,04,12,03,51,2.10
2018,04,12,03,52,2.10
2018,04,12,03,53,2.10
2018,04,12,03,54,2.10
2018,04,12,03,55,2.10
2018,04,12,03,56,2.10
2018,04,12,03,57,2.10
2018,04,12,03,58,2.10
2018,04,12,03,59,2.00
2018,04,12,04,00,2.00
2018,04,12,04,01,2.00
2018,04,12,04,02,2.00
2018,04,12,04,03,2.00
2018,04,12,04,04,2.00
2018,04,12,04,05,2.00
2018,04,12,04,06,2.10
2018,04,12,04,07,2.10
2018,04,12,04,08,2.10
2018,04,12,04,09,2.10
2018,04,12,04,10,2.10
2018,04,12,04,11,2.10
2018,04,12,04,12,2.10
2018,04,12,04,13,2.10
2018,04,12,04,14,2.10
2018,04,12,04,15,2.10
2018,04,12,04,16,2.10
2018,04,12,04,17,2.10
2018,04,12,04,18,2.20
2018,04,12,04,19,2.20
2018,04,12,04,20,2.20
2018,04,12,04,21,2.20
2018,04,12,04,22,2.20
2018,04,12,04,23,2.20
2018,04,12,04,24,2.20
2018,04,12,04,25,2.20
2018,04,12,04,26,2.20
2018,04,12,04,27,2.20
2018,04,12,04,28,2.20
2018,04,12,04,29,2.30
2018,04,12,04,30,2.30
2018,04,12,04,31,2.30
2018,04,12,04,32,2.30
2018,04,12,04,33,2.30
2018,04,12,04,34,2.30
2018,04,12,04,35,2.30
2018,04,12,04,36,2.30
2018,04,12,04,37,2.30
2018,04,12,04,38,2.30
2018,04,12,04,39,2.30
2018,04,12,04,40,2.30
2018,04,12,04,41,2.30
2018,04,12,04,42,2.40
2018,04,12,04,43,2.40
2018,04,12,04,44,2.40
2018,04,12,04,45,2.40
2018,04,12,04,46,2.40
2018,04,12,04,47,2.40
2018,04,12,04,48,2.40
2018,04,12,04,49,2.40
2018,04,12,04,50,2.40
2018,04,12,04,51,2.40
2018,04,12,04,52,2.40
2018,04,12,04,53,2.40
2018,04,12,04,54,2.40
2018,04,12,04,55,2.40
2018,04,12,04,56,2.40
2018,04,12,04,57,2.40
2018,04,12,04,58,2.40
2018,04,12,04,59,2.40
2018,04,12,05,00,2.40
2018,04,12,05,01,2.40
2018,04,12,05,02,2.40
2018,04,12,05,03,2.40
2018,04,12,05,04,2.30
2018,04,12,05,05,2.30
2018,04,12,05,06,2.30
2018,04,12,05,07,2.30
2018,04,12,05,08,2.30
2018,04,12,05,09,2.30
2018,04,12,05,10,2.30
2018,04,12,05,11,2.30
2018,04,12,05,12,2.30
2018,04,12,05,13,2.30
2018,04,12,05,14,2.30
2018,04,12,07,30,2.60
2018,04,12,07,31,2.60
2018,04,12,07,32,2.60
2018,04,12,07,33,2.70
2018,04,12,07,34,2.70
2018,04,12,07,35,2.70
2018,04,12,07,36,2.70
2018,04,12,07,37,2.70
2018,04,12,07,38,2.70
2018,04,12,07,39,2.70
2018,04,12,07,40,2.70
2018,04,12,07,41,2.80
2018,04,12,07,42,2.80
2018,04,12,07,43,2.80
2018,04,12,07,44,2.80
2018,04,12,07,45,2.80
2018,04,12,07,46,2.80
2018,04,12,07,47,2.80
2018,04,12,07,48,2.90
2018,04,12,07,49,2.90
2018,04,12,07,50,2.90
2018,04,12,07,51,2.90
2018,04,12,07,52,2.90
2018,04,12,07,53,2.90
2018,04,12,07,54,3.00
2018,04,12,07,55,3.10
2018,04,12,07,56,3.10
2018,04,12,07,57,3.10
2018,04,12,07,58,3.10
2018,04,12,07,59,3.10
2018,04,12,08,00,3.20
2018,04,12,08,01,3.20
2018,04,12,08,02,3.20
2018,04,12,08,03,3.30
2018,04,12,08,04,3.30
2018,04,12,08,05,3.30
2018,04,12,08,06,3.40
2018,04,12,08,07,3.50
2018,04,12,08,08,3.50
2018,04,12,08,09,3.60
2018,04,12,08,10,3.60
2018,04,12,08,11,3.70
2018,04,12,08,12,3.70
2018,04,12,08,13,3.80
2018,04,12,08,14,3.80
2018,04,12,08,15,3.80
2018,04,12,08,16,3.90
2018,04,12,08,17,3.90
2018,04,12,08,18,4.00
2018,04,12,08,19,4.10
2018,04,12,08,20,4.10
2018,04,12,08,21,4.20
2018,04,12,08,22,4.20
2018,04,12,08,23,4.30
2018,04,12,08,24,4.30
2018,04,12,08,25,4.40
2018,04,12,08,26,4.40
2018,04,12,08,27,4.50
2018,04,12,08,28,4.50
2018,04,12,08,29,4.60
2018,04,12,08,30,4.60
2018,04,12,08,31,4.60
2018,04,12,08,32,4.70
2018,04,12,08,33,4.70
2018,04,12,08,34,4.70
2018,04,12,08,35,4.70
2018,04,12,08,36,4.80
2018,04,12,08,37,4.80
2018,04,12,08,38,4.80
2018,04,12,08,39,4.90
2018,04,12,08,40,5.00
2018,04,12,08,41,5.00
2018,04,12,08,42,5.10
2018,04,12,08,43,5.10
2018,04,12,08,44,5.10
2018,04,12,08,45,5.10
2018,04,12,08,46,5.10
2018,04,12,08,47,5.10
2018,04,12,08,48,5.10
2018,04,12,08,49,5.10
2018,04,12,08,50,5.20
2018,04,12,08,51,5.30
2018,04,12,08,52,5.40
2018,04,12,08,53,5.50
2018,04,12,08,54,5.60
2018,04,12,08,55,5.70
2018,04,12,08,56,5.90
2018,04,12,08,57,6.00
2018,04,12,08,58,6.10
2018,04,12,08,59,6.20
2018,04,12,09,00,6.30
2018,04,12,09,01,6.40
2018,04,12,09,02,6.50
2018,04,12,09,03,6.60
2018,04,12,09,04,6.70
2018,04,12,09,05,6.80
2018,04,12,09,06,7.00
2018,04,12,09,07,7.10
2018,04,12,09,08,7.30
2018,04,12,09,09,7.40
2018,04,12,09,10,7.50
2018,04,12,09,11,7.50
2018,04,12,09,12,7.70
2018,04,12,09,13,7.70
2018,04,12,09,14,7.80
2018,04,12,09,15,7.80
2018,04,12,09,16,7.80
2018,04,12,09,17,7.80
2018,04,12,09,18,7.80
2018,04,12,09,19,7.80
2018,04,12,09,20,7.80
2018,04,12,09,21,7.80
2018,04,12,09,22,7.80
2018,04,12,09,23,7.80
2018,04,12,09,24,7.80
2018,04,12,09,25,7.70
2018,04,12,09,26,7.70
2018,04,12,09,27,7.70
2018,04,12,09,28,7.60
2018,04,12,09,29,7.60
2018,04,12,09,30,7.60
2018,04,12,09,31,7.50
2018,04,12,09,32,7.50
2018,04,12,09,33,7.40
2018,04,12,09,34,7.40
2018,04,12,09,35,7.40
2018,04,12,09,36,7.40
2018,04,12,09,37,7.30
2018,04,12,09,38,7.30
2018,04,12,09,39,7.30
2018,04,12,09,40,7.20
2018,04,12,09,41,7.20
2018,04,12,09,42,7.20
2018,04,12,09,43,7.20
2018,04,12,09,44,7.30
2018,04,12,09,45,7.30
2018,04,12,09,46,7.30
2018,04,12,09,47,7.40
2018,04,12,09,48,7.50
2018,04,12,09,49,7.50
2018,04,12,09,50,7.60
2018,04,12,09,51,7.60
2018,04,12,09,52,7.70
2018,04,12,09,53,7.70
2018,04,12,09,54,7.80
2018,04,12,09,55,7.80
2018,04,12,09,56,7.80
2018,04,12,09,57,7.90
2018,04,12,09,58,7.90
2018,04,12,09,59,8.00
2018,04,12,10,00,8.10
2018,04,12,10,01,8.20
2018,04,12,10,02,8.20
2018,04,12,10,03,8.30
2018,04,12,10,04,8.40
2018,04,12,10,05,8.50
2018,04,12,10,06,8.60
2018,04,12,10,07,8.60
2018,04,12,10,08,8.60
2018,04,12,10,09,8.70
2018,04,12,10,10,8.70
2018,04,12,10,11,8.80
2018,04,12,10,12,8.70
2018,04,12,10,13,8.70
2018,04,12,10,14,8.70
2018,04,12,10,15,8.70
2018,04,12,10,16,8.70
2018,04,12,10,17,8.80
2018,04,12,10,18,8.80
2018,04,12,10,19,8.80
2018,04,12,10,20,8.80
2018,04,12,10,21,8.80
2018,04,12,10,22,8.80
2018,04,12,10,23,8.80
2018,04,12,10,24,8.80
2018,04,12,10,25,8.80
2018,04,12,10,26,8.90
2018,04,12,10,27,9.00
2018,04,12,10,28,9.10
2018,04,12,10,29,9.10
2018,04,12,10,30,9.20
2018,04,12,10,31,9.30
2018,04,12,10,32,9.40
2018,04,12,10,33,9.50
2018,04,12,10,34,9.60
2018,04,12,10,35,9.60
2018,04,12,10,36,9.80
2018,04,12,10,37,9.80
2018,04,12,10,38,9.90
2018,04,12,10,39,10.00
2018,04,12,10,40,10.10
2018,04,12,10,41,10.20
2018,04,12,10,42,10.30
2018,04,12,10,43,10.30
2018,04,12,10,44,10.40
2018,04,12,10,45,10.40
2018,04,12,10,46,10.50
2018,04,12,10,47,10.60
2018,04,12,10,48,10.70
2018,04,12,10,49,10.70
2018,04,12,10,50,10.80
2018,04,12,10,51,10.80
2018,04,12,10,52,10.80
2018,04,12,10,53,10.80
2018,04,12,10,54,10.80
2018,04,12,10,55,10.80
2018,04,12,10,56,10.80
2018,04,12,10,57,10.80
2018,04,12,10,58,10.90
2018,04,12,10,59,10.90
2018,04,12,11,00,11.00
2018,04,12,11,01,11.00
2018,04,12,11,02,11.10
2018,04,12,11,03,11.00
2018,04,12,11,04,11.10
2018,04,12,11,05,11.10
2018,04,12,11,06,11.20
2018,04,12,11,07,11.20
2018,04,12,11,08,11.30
2018,04,12,11,09,11.30
2018,04,12,11,10,11.30
2018,04,12,11,11,11.40
2018,04,12,11,12,11.50
2018,04,12,11,13,11.60
2018,04,12,11,14,11.70
2018,04,12,11,15,11.80
2018,04,12,11,16,11.90
2018,04,12,11,17,11.90
2018,04,12,11,18,11.90
2018,04,12,11,19,11.80
2018,04,12,11,20,11.70
2018,04,12,11,21,11.70
2018,04,12,11,22,11.70
2018,04,12,11,23,11.70
2018,04,12,11,24,11.70
2018,04,12,11,25,11.80
2018,04,12,11,26,11.80
2018,04,12,11,27,11.80
2018,04,12,11,28,11.80
2018,04,12,11,29,11.80
2018,04,12,11,30,11.80
2018,04,12,11,31,11.80
2018,04,12,11,32,11.90
2018,04,12,11,33,12.00
2018,04,12,11,34,12.00
2018,04,12,11,35,12.10
2018,04,12,11,36,12.10
2018,04,12,11,37,12.10
2018,04,12,11,38,12.10
2018,04,12,11,39,12.10
2018,04,12,11,40,12.20
2018,04,12,11,41,12.20
2018,04,12,11,42,12.20
2018,04,12,11,43,12.20
2018,04,12,11,44,12.30
2018,04,12,11,45,12.30
2018,04,12,11,46,12.30
2018,04,12,11,47,12.40
2018,04,12,11,48,12.40
2018,04,12,11,49,12.40
2018,04,12,11,50,12.40
2018,04,12,11,51,12.40
2018,04,12,11,52,12.40
2018,04,12,11,53,12.40
2018,04,12,11,54,12.40
2018,04,12,11,55,12.30
2018,04,12,11,56,12.30
2018,04,12,11,57,12.30
2018,04,12,11,58,12.30
2018,04,12,11,59,12.20
2018,04,12,12,00,12.20
2018,04,12,12,01,12.10
2018,04,12,12,02,12.10
2018,04,12,12,03,12.10
2018,04,12,12,04,12.10
2018,04,12,12,05,12.20
2018,04,12,12,06,12.20
2018,04,12,12,07,12.10
2018,04,12,12,08,12.00
2018,04,12,12,09,12.00
2018,04,12,12,10,12.00
2018,04,12,12,11,12.00
2018,04,12,12,12,12.10
2018,04,12,12,13,12.10
2018,04,12,12,14,12.10
2018,04,12,12,15,12.20
2018,04,12,12,16,12.20
2018,04,12,12,17,12.20
2018,04,12,12,18,12.20
2018,04,12,12,19,12.20
2018,04,12,12,20,12.20
2018,04,12,12,21,12.30
2018,04,12,12,22,12.30
2018,04,12,12,23,12.40
2018,04,12,12,24,12.50
2018,04,12,12,25,12.60
2018,04,12,12,26,12.60
2018,04,12,12,27,12.70
2018,04,12,12,28,12.80
2018,04,12,12,29,12.80
2018,04,12,12,30,12.70
2018,04,12,12,31,12.60
2018,04,12,12,32,12.50
2018,04,12,12,33,12.40
2018,04,12,12,34,12.40
2018,04,12,12,35,12.20
2018,04,12,12,36,12.10
2018,04,12,12,37,12.00
2018,04,12,12,38,11.80
2018,04,12,12,39,11.60
2018,04,12,12,40,11.50
2018,04,12,12,41,11.30
2018,04,12,12,42,11.20
2018,04,12,12,43,11.10
2018,04,12,12,44,11.10
2018,04,12,12,45,11.10
2018,04,12,12,46,11.20
2018,04,12,12,47,11.20
2018,04,12,12,48,11.30
2018,04,12,12,49,11.50
2018,04,12,12,50,11.60
2018,04,12,12,51,11.70
2018,04,12,12,52,11.80
2018,04,12,12,53,11.80
2018,04,12,12,54,11.80
2018,04,12,12,55,11.70
2018,04,12,12,56,11.70
2018,04,12,12,57,11.70
2018,04,12,12,58,11.70
2018,04,12,12,59,11.80
2018,04,12,13,00,11.80
2018,04,12,13,01,11.90
2018,04,12,13,02,12.00
2018,04,12,13,03,12.10
2018,04,12,13,04,12.10
2018,04,12,13,05,12.10
2018,04,12,13,06,12.20
2018,04,12,13,07,12.30
2018,04,12,13,08,12.30
2018,04,12,13,09,12.30
2018,04,12,13,10,12.30
2018,04,12,13,11,12.30
2018,04,12,13,12,12.30
2018,04,12,13,13,12.40
2018,04,12,13,14,12.50
2018,04,12,13,15,12.50
2018,04,12,13,16,12.50
2018,04,12,13,17,12.60
2018,04,12,13,18,12.60
2018,04,12,13,19,12.60
2018,04,12,13,20,12.60
2018,04,12,13,21,12.60
2018,04,12,13,22,12.60
2018,04,12,13,23,12.60
2018,04,12,13,24,12.60
2018,04,12,13,25,12.60
2018,04,12,13,26,12.60
2018,04,12,13,27,12.70
2018,04,12,13,28,12.70
2018,04,12,13,29,12.90
2018,04,12,13,30,13.00
2018,04,12,13,31,13.00
2018,04,12,13,32,13.10
2018,04,12,13,33,13.20
2018,04,12,13,34,13.20
2018,04,12,13,35,13.20
2018,04,12,13,36,13.20
2018,04,12,13,37,13.10
2018,04,12,13,38,13.10
2018,04,12,13,39,13.10
2018,04,12,13,40,13.10
2018,04,12,13,41,13.00
2018,04,12,13,42,13.00
2018,04,12,13,43,13.00
2018,04,12,13,44,12.90
2018,04,12,13,45,12.90
2018,04,12,13,46,13.00
2018,04,12,13,47,13.00
2018,04,12,13,48,13.10
2018,04,12,13,49,13.20
2018,04,12,13,50,13.30
2018,04,12,13,51,13.30
2018,04,12,13,52,13.30
2018,04,12,13,53,13.30
2018,04,12,13,54,13.30
2018,04,12,13,55,13.30
2018,04,12,13,56,13.40
2018,04,12,13,57,13.40
2018,04,12,13,58,13.40
2018,04,12,13,59,13.50
2018,04,12,14,00,13.60
2018,04,12,14,01,13.60
2018,04,12,14,02,13.70
2018,04,12,14,03,13.70
2018,04,12,14,04,13.70
2018,04,12,14,05,13.60
2018,04,12,14,06,13.60
2018,04,12,14,07,13.50
2018,04,12,14,08,13.40
2018,04,12,14,09,13.30
2018,04,12,14,10,13.10
2018,04,12,14,11,13.00
2018,04,12,14,12,12.90
2018,04,12,14,13,12.80
2018,04,12,14,14,12.70
2018,04,12,14,15,12.60
2018,04,12,14,16,12.40
2018,04,12,14,17,12.30
2018,04,12,14,18,12.20
2018,04,12,14,19,12.20
2018,04,12,14,20,12.10
2018,04,12,14,21,12.10
2018,04,12,14,22,12.00
2018,04,12,14,23,12.00
2018,04,12,14,24,11.90
2018,04,12,14,25,11.90
2018,04,12,14,26,11.80
2018,04,12,14,27,11.70
2018,04,12,14,28,11.70
2018,04,12,14,29,11.60
2018,04,12,14,30,11.60
2018,04,12,14,31,11.60
2018,04,12,14,32,11.50
2018,04,12,14,33,11.50
2018,04,12,14,34,11.40
2018,04,12,14,35,11.30
2018,04,12,14,36,11.30
2018,04,12,14,37,11.30
2018,04,12,14,38,11.20
2018,04,12,14,39,11.20
2018,04,12,14,40,11.20
2018,04,12,14,41,11.20
2018,04,12,14,42,11.20
2018,04,12,14,43,11.20
2018,04,12,14,44,11.20
2018,04,12,14,45,11.20
2018,04,12,14,46,11.20
2018,04,12,14,47,11.20
2018,04,12,14,48,11.20
2018,04,12,14,49,11.30
2018,04,12,14,50,11.30
2018,04,12,14,51,11.30
2018,04,12,14,52,11.40
2018,04,12,14,53,11.40
2018,04,12,14,54,11.40
2018,04,12,14,55,11.30
2018,04,12,14,56,11.30
2018,04,12,14,57,11.20
2018,04,12,14,58,11.20
2018,04,12,14,59,11.10
2018,04,12,15,00,11.10
2018,04,12,15,01,11.00
2018,04,12,15,02,11.00
2018,04,12,15,03,11.00
2018,04,12,15,04,11.00
2018,04,12,15,05,11.00
2018,04,12,15,06,11.00
2018,04,12,15,07,11.00
2018,04,12,15,08,10.90
2018,04,12,15,09,10.90
2018,04,12,15,10,10.90
2018,04,12,15,11,10.90
2018,04,12,15,12,10.90
2018,04,12,15,13,10.90
2018,04,12,15,14,10.90
2018,04,12,15,15,10.90
2018,04,12,15,16,10.90
2018,04,12,15,17,11.00
2018,04,12,15,18,11.00
2018,04,12,15,19,11.10
2018,04,12,15,20,11.10
2018,04,12,15,21,11.10
2018,04,12,15,22,11.10
2018,04,12,15,23,11.10
2018,04,12,15,24,11.10
2018,04,12,15,25,11.10
2018,04,12,15,26,11.00
2018,04,12,15,27,11.00
2018,04,12,15,28,10.90
2018,04,12,15,29,10.90
2018,04,12,15,30,10.90
2018,04,12,15,31,10.90
2018,04,12,15,32,10.90
2018,04,12,15,33,10.80
2018,04,12,15,34,10.80
2018,04,12,15,35,10.80
2018,04,12,15,36,10.80
2018,04,12,15,37,10.80
2018,04,12,15,38,10.80
2018,04,12,15,39,10.80
2018,04,12,15,40,10.80
2018,04,12,15,41,10.90
2018,04,12,15,42,10.90
2018,04,12,15,43,11.00
2018,04,12,15,44,11.10
2018,04,12,15,45,11.20
2018,04,12,15,46,11.30
2018,04,12,15,47,11.40
2018,04,12,15,48,11.50
2018,04,12,15,49,11.60
2018,04,12,15,50,11.70
2018,04,12,15,51,11.70
2018,04,12,15,52,11.80
2018,04,12,15,53,11.80
2018,04,12,15,54,11.90
2018,04,12,15,55,12.00
2018,04,12,15,56,12.00
2018,04,12,15,57,12.10
2018,04,12,15,58,12.10
2018,04,12,15,59,12.20
2018,04,12,16,00,12.20
2018,04,12,16,01,12.20
2018,04,12,16,02,12.20
2018,04,12,16,03,12.30
2018,04,12,16,04,12.30
2018,04,12,16,05,12.40
2018,04,12,16,06,12.50
2018,04,12,16,07,12.50
2018,04,12,16,08,12.60
2018,04,12,16,09,12.60
2018,04,12,16,10,12.70
2018,04,12,16,11,12.70
2018,04,12,16,12,12.70
2018,04,12,16,13,12.70
2018,04,12,16,14,12.70
2018,04,12,16,15,12.70
2018,04,12,16,16,12.60
2018,04,12,16,17,12.60
2018,04,12,16,18,12.50
2018,04,12,16,19,12.40
2018,04,12,16,20,12.40
2018,04,12,16,21,12.30
2018,04,12,16,22,12.30
2018,04,12,16,23,12.20
2018,04,12,16,24,12.20
2018,04,12,16,25,12.10
2018,04,12,16,26,12.00
2018,04,12,16,27,12.00
2018,04,12,16,28,11.90
2018,04,12,16,29,11.80
2018,04,12,16,30,11.80
2018,04,12,16,31,11.70
2018,04,12,16,32,11.70
2018,04,12,16,33,11.60
2018,04,12,16,34,11.60
2018,04,12,16,35,11.60
2018,04,12,16,36,11.60
2018,04,12,16,37,11.60
2018,04,12,16,38,11.60
2018,04,12,16,39,11.60
2018,04,12,16,40,11.60
2018,04,12,16,41,11.60
2018,04,12,16,42,11.60
2018,04,12,16,43,11.60
2018,04,12,16,44,11.50
2018,04,12,16,45,11.50
2018,04,12,16,46,11.50
2018,04,12,16,47,11.40
2018,04,12,16,48,11.40
2018,04,12,16,49,11.30
2018,04,12,16,50,11.30
2018,04,12,16,51,11.20
2018,04,12,16,52,11.20
2018,04,12,16,53,11.10
2018,04,12,16,54,11.00
2018,04,12,16,55,10.90
2018,04,12,16,56,10.90
2018,04,12,16,57,10.90
2018,04,12,16,58,10.90
2018,04,12,16,59,10.80
2018,04,12,17,00,10.80
2018,04,12,17,01,10.80
2018,04,12,17,02,10.80
2018,04,12,17,03,10.80
2018,04,12,17,04,10.80
2018,04,12,17,05,10.80
2018,04,12,17,06,10.80
2018,04,12,17,07,10.80
2018,04,12,17,08,10.70
2018,04,12,17,09,10.70
2018,04,12,17,10,10.60
2018,04,12,17,11,10.50
2018,04,12,17,12,10.50
2018,04,12,17,13,10.40
2018,04,12,17,14,10.30
2018,04,12,17,15,10.30
2018,04,12,17,16,10.30
2018,04,12,17,17,10.30
2018,04,12,17,18,10.30
2018,04,12,17,19,10.30
2018,04,12,17,20,10.30
2018,04,12,17,21,10.30
2018,04,12,17,22,10.20
2018,04,12,17,23,10.20
2018,04,12,17,24,10.20
2018,04,12,17,25,10.20
2018,04,12,17,26,10.20
2018,04,12,17,27,10.10
2018,04,12,17,28,10.10
2018,04,12,17,29,10.10
2018,04,12,17,30,10.10
2018,04,12,17,31,10.10
2018,04,12,17,32,10.10
2018,04,12,17,33,10.10
2018,04,12,17,34,10.10
2018,04,12,17,35,10.10
2018,04,12,17,36,10.10
2018,04,12,17,37,10.10
2018,04,12,17,38,10.10
2018,04,12,17,39,10.10
2018,04,12,17,40,10.00
2018,04,12,17,41,10.00
2018,04,12,17,42,10.00
2018,04,12,17,43,10.00
2018,04,12,17,44,10.00
2018,04,12,17,45,9.90
2018,04,12,17,46,9.90
2018,04,12,17,47,9.80
2018,04,12,17,48,9.80
2018,04,12,17,49,9.80
2018,04,12,17,50,9.80
2018,04,12,17,51,9.70
2018,04,12,17,52,9.70
2018,04,12,17,53,9.70
2018,04,12,17,54,9.70
2018,04,12,17,55,9.70
2018,04,12,17,56,9.60
2018,04,12,17,57,9.60
2018,04,12,17,58,9.60
2018,04,12,17,59,9.60
2018,04,12,18,00,9.50
2018,04,12,18,01,9.50
2018,04,12,18,02,9.50
2018,04,12,18,03,9.40
2018,04,12,18,04,9.40
2018,04,12,18,05,9.40
2018,04,12,18,06,9.40
2018,04,12,18,07,9.40
2018,04,12,18,08,9.40
2018,04,12,18,09,9.40
2018,04,12,18,10,9.40
2018,04,12,18,11,9.40
2018,04,12,18,12,9.40
2018,04,12,18,13,9.40
2018,04,12,18,14,9.30
2018,04,12,18,15,9.30
2018,04,12,18,16,9.30
2018,04,12,18,17,9.30
2018,04,12,18,18,9.30
2018,04,12,18,19,9.30
2018,04,12,18,20,9.20
2018,04,12,18,21,9.20
2018,04,12,18,22,9.20
2018,04,12,18,23,9.20
2018,04,12,18,24,9.20
2018,04,12,18,25,9.20
2018,04,12,18,26,9.10
2018,04,12,18,27,9.10
2018,04,12,18,28,9.10
2018,04,12,18,29,9.00
2018,04,12,18,30,9.00
2018,04,12,18,31,9.00
2018,04,12,18,32,8.90
2018,04,12,18,33,8.90
2018,04,12,18,34,8.90
2018,04,12,18,35,8.80
2018,04,12,18,36,8.80
2018,04,12,18,37,8.80
2018,04,12,18,38,8.80
2018,04,12,18,39,8.80
2018,04,12,18,40,8.80
2018,04,12,18,41,8.80
2018,04,12,18,42,8.80
2018,04,12,18,43,8.80
2018,04,12,18,44,8.80
2018,04,12,18,45,8.80
2018,04,12,18,46,8.80
2018,04,12,18,47,8.80
2018,04,12,18,48,8.70
2018,04,12,18,49,8.70
2018,04,12,18,50,8.70
2018,04,12,18,51,8.70
2018,04,12,18,52,8.70
2018,04,12,18,53,8.60
2018,04,12,18,54,8.60
2018,04,12,18,55,8.60
2018,04,12,18,56,8.60
2018,04,12,18,57,8.60
2018,04,12,18,58,8.60
2018,04,12,18,59,8.60
2018,04,12,19,00,8.60
2018,04,12,19,01,8.60
2018,04,12,19,02,8.60
2018,04,12,19,03,8.60
2018,04,12,19,04,8.60
2018,04,12,19,05,8.60
2018,04,12,19,06,8.60
2018,04,12,19,07,8.60
2018,04,12,19,08,8.60
2018,04,12,19,09,8.60
2018,04,12,19,10,8.50
2018,04,12,19,11,8.50
2018,04,12,19,12,8.50
2018,04,12,19,13,8.50
2018,04,12,19,14,8.50
2018,04,12,19,15,8.50
2018,04,12,19,16,8.50
2018,04,12,19,17,8.50
2018,04,12,19,18,8.50
2018,04,12,19,19,8.40
2018,04,12,19,20,8.40
2018,04,12,19,21,8.40
2018,04,12,19,22,8.40
2018,04,12,19,23,8.40
2018,04,12,19,24,8.40
2018,04,12,19,25,8.40
2018,04,12,19,26,8.40
2018,04,12,19,27,8.40
2018,04,12,19,28,8.40
2018,04,12,19,29,8.40
2018,04,12,19,30,8.40
2018,04,12,19,31,8.40
2018,04,12,19,32,8.30
2018,04,12,19,33,8.30
2018,04,12,19,34,8.30
2018,04,12,19,35,8.30
2018,04,12,19,36,8.30
2018,04,12,19,37,8.30
2018,04,12,19,38,8.30
2018,04,12,19,39,8.30
2018,04,12,19,40,8.30
2018,04,12,19,41,8.30
2018,04,12,19,42,8.20
2018,04,12,19,43,8.20
2018,04,12,19,44,8.20
2018,04,12,19,45,8.20
2018,04,12,19,46,8.20
2018,04,12,19,47,8.20
2018,04,12,19,48,8.10
2018,04,12,19,49,8.10
2018,04,12,19,50,8.10
2018,04,12,19,51,8.10
2018,04,12,19,52,8.10
2018,04,12,19,53,8.10
2018,04,12,19,54,8.10
2018,04,12,19,55,8.00
2018,04,12,19,56,8.00
2018,04,12,19,57,8.00
2018,04,12,19,58,8.00
2018,04,12,19,59,7.90
2018,04,12,20,00,7.90
2018,04,12,20,01,7.90
2018,04,12,20,02,7.90